| time (UTC) | temp F | wind direction | speed knots | gust knots | rain 1hr in | rain 24hr in | rain mn in | humidity % | barometer mb |
| 20260504033016 | 45 | 1 | 0.0 | 0.0 | 0.00 | 0.00 | 0.00 | 65 | 1017.0 |
| 20260504031522 | 45 | 1 | 0.0 | 0.0 | 0.00 | 0.00 | 0.00 | 66 | 1017.0 |
| 20260504030027 | 45 | 1 | 0.0 | 0.0 | 0.00 | 0.00 | 0.00 | 65 | 1017.1 |
| 20260504024510 | 45 | 1 | 0.0 | 1.7 | 0.00 | 0.00 | 0.00 | 64 | 1017.2 |
| 20260504023017 | 45 | 37 | 0.0 | 0.0 | 0.00 | 0.00 | 0.00 | 62 | 1017.2 |
| 20260504021522 | 46 | 37 | 0.0 | 1.7 | 0.00 | 0.00 | 0.00 | 61 | 1017.1 |
| 20260504020025 | 47 | 25 | 0.0 | 4.3 | 0.00 | 0.00 | 0.00 | 56 | 1016.7 |
| 20260504014524 | 47 | 31 | 0.0 | 1.7 | 0.00 | 0.00 | 0.00 | 57 | 1016.7 |
| 20260504013012 | 48 | 29 | 1.7 | 3.5 | 0.00 | 0.00 | 0.00 | 53 | 1016.5 |
| 20260504011518 | 46 | 39 | 0.9 | 3.5 | 0.00 | 0.00 | 0.00 | 60 | 1016.4 |
| 20260504010023 | 46 | 51 | 0.9 | 3.5 | 0.00 | 0.00 | 0.00 | 59 | 1016.2 |
| 20260504004531 | 46 | 360 | 0.0 | 2.6 | 0.00 | 0.00 | 0.00 | 58 | 1016.0 |
| 20260504003024 | 47 | 14 | 0.0 | 0.0 | 0.00 | 0.00 | 0.00 | 58 | 1016.0 |
| 20260504001503 | 48 | 14 | 0.0 | 0.0 | 0.00 | 0.00 | 0.00 | 55 | 1016.0 |
| 20260504000000 | 49 | 10 | 0.0 | 0.0 | 0.00 | 0.00 | 0.00 | 51 | 1015.8 |
| 20260503234501 | 51 | 8 | 0.0 | 0.0 | 0.00 | 0.00 | 0.00 | 49 | 1015.9 |
| 20260503233004 | 53 | 1 | 0.0 | 2.6 | 0.00 | 0.00 | 0.00 | 42 | 1015.9 |
| 20260503231503 | 54 | 58 | 0.9 | 2.6 | 0.00 | 0.00 | 0.00 | 41 | 1015.9 |
| 20260503230001 | 55 | 339 | 0.0 | 1.7 | 0.00 | 0.00 | 0.00 | 40 | 1015.8 |
| 20260503224501 | 58 | 181 | 0.9 | 7.8 | 0.00 | 0.00 | 0.00 | 29 | 1015.7 |
| 20260503223005 | 58 | 237 | 2.6 | 7.0 | 0.00 | 0.00 | 0.00 | 28 | 1015.7 |
| 20260503221504 | 57 | 155 | 2.6 | 4.3 | 0.00 | 0.00 | 0.00 | 28 | 1015.8 |
| 20260503220003 | 58 | 324 | 0.9 | 4.3 | 0.00 | 0.00 | 0.00 | 27 | 1015.9 |
| 20260503214503 | 58 | 115 | 0.0 | 5.2 | 0.00 | 0.00 | 0.00 | 26 | 1015.9 |
| 20260503213005 | 59 | 81 | 2.6 | 7.0 | 0.00 | 0.00 | 0.00 | 26 | 1015.9 |
| 20260503211503 | 59 | 45 | 1.7 | 7.0 | 0.00 | 0.00 | 0.00 | 27 | 1016.1 |
| 20260503210005 | 59 | 329 | 0.0 | 6.1 | 0.00 | 0.00 | 0.00 | 25 | 1015.9 |
| 20260503204503 | 60 | 316 | 0.9 | 7.8 | 0.00 | 0.00 | 0.00 | 25 | 1016.1 |
| 20260503203004 | 59 | 46 | 0.9 | 7.0 | 0.00 | 0.00 | 0.00 | 26 | 1016.2 |
| 20260503201506 | 62 | 359 | 1.7 | 7.8 | 0.00 | 0.00 | 0.00 | 24 | 1016.5 |
| 20260503200003 | 60 | 310 | 3.5 | 9.6 | 0.00 | 0.00 | 0.00 | 25 | 1016.7 |
| 20260503194506 | 62 | 91 | 4.3 | 9.6 | 0.00 | 0.00 | 0.00 | 23 | 1017.1 |
| 20260503193008 | 60 | 72 | 2.6 | 13.0 | 0.00 | 0.00 | 0.00 | 25 | 1017.2 |
| 20260503191506 | 62 | 340 | 5.2 | 8.7 | 0.00 | 0.00 | 0.00 | 23 | 1017.4 |
| 20260503190005 | 59 | 194 | 2.6 | 7.0 | 0.00 | 0.00 | 0.00 | 25 | 1017.7 |
| 20260503184513 | 59 | 193 | 1.7 | 13.9 | 0.00 | 0.00 | 0.00 | 26 | 1017.9 |
| 20260503183006 | 60 | 51 | 0.9 | 12.2 | 0.00 | 0.00 | 0.00 | 25 | 1018.0 |
| 20260503181506 | 60 | 307 | 1.7 | 7.0 | 0.00 | 0.00 | 0.00 | 25 | 1018.2 |
| 20260503180018 | 60 | 58 | 4.3 | 12.2 | 0.00 | 0.00 | 0.00 | 27 | 1018.5 |
| 20260503174509 | 59 | 338 | 1.7 | 6.1 | 0.00 | 0.00 | 0.00 | 29 | 1018.4 |
| 20260503173009 | 58 | 15 | 1.7 | 12.2 | 0.00 | 0.00 | 0.00 | 27 | 1018.6 |
| 20260503171509 | 58 | 120 | 0.9 | 9.6 | 0.00 | 0.00 | 0.00 | 27 | 1018.7 |
| 20260503081503 | 34 | 168 | 0.0 | 0.0 | 0.00 | 0.00 | 0.00 | 85 | 1017.0 |
| 20260503071509 | 36 | 132 | 0.0 | 0.0 | 0.00 | 0.00 | 0.00 | 82 | 1016.6 |
| 20260503054504 | 34 | 23 | 0.0 | 0.0 | 0.00 | 0.00 | 0.00 | 85 | 1016.6 |
| 20260503053012 | 34 | 8 | 0.0 | 0.0 | 0.00 | 0.00 | 0.00 | 84 | 1016.5 |
| 20260503051513 | 35 | 8 | 0.0 | 0.0 | 0.00 | 0.00 | 0.00 | 83 | 1016.5 |
| 20260503050021 | 35 | 8 | 0.0 | 0.0 | 0.00 | 0.00 | 0.00 | 82 | 1016.5 |
| 20260503044524 | 36 | 8 | 0.0 | 0.0 | 0.00 | 0.00 | 0.00 | 81 | 1016.4 |
| 20260503043010 | 36 | 8 | 0.0 | 0.0 | 0.00 | 0.00 | 0.00 | 81 | 1016.2 |
| 20260503041515 | 36 | 8 | 0.0 | 0.0 | 0.00 | 0.00 | 0.00 | 80 | 1016.1 |
| 20260503040018 | 37 | 8 | 0.0 | 0.0 | 0.00 | 0.00 | 0.00 | 79 | 1016.1 |
| 20260503034537 | 37 | 8 | 0.0 | 0.0 | 0.00 | 0.00 | 0.00 | 77 | 1016.0 |